[[{"header":{"parameterUnit":"m.s-1","parameterCategory":1,"la1":30.2991,"la2":30.254,"lo1":-89.0895,"lo2":-89.0444,"dy":0.0017,"dx":0.0017,"nx":28,"ny":28,"refTime":"2024-08-08T09:00:00:Z","depth":0,"parameterNumber":2,"parameterNumberName":"U-component_of_WINDS"},"data":[0,0,0,0,0,0,0,0,0,0,0,0,0,0,0,0,0,0,0,0,0,0,0,0,0,0,0,0,0,0,0,0,0,0,0,0,0,0,0,0,0,0,0,0,0,0,0,0,0,0,0,0,0,0,0,0,0,0,1.3101,1.3102,0,1.3226,1.3227,1.3229,1.3224,1.3222,1.3221,1.3219,1.3353,1.3358,1.3364,0,0,0,0,0,0,0,0,0,0,0,0,0,1.2864,1.2868,1.3101,1.3102,1.3104,1.3226,1.3228,1.3229,1.3224,1.3222,1.322,1.3218,1.3352,1.3358,1.3364,0,0,0,0,0,0,0,0,0,0,0,0,0,1.2976,1.2869,1.31,1.3116,1.3119,1.3225,1.3228,1.323,1.3225,1.3222,1.322,1.3217,1.335,1.3357,1.3365,1.3467,0,0,1.3389,1.3392,0,0,0,0,0,0,0,0,1.2969,1.2984,1.3112,1.3115,1.3118,1.3207,1.3193,1.3309,1.3226,1.3185,1.3219,1.3216,1.3307,1.3318,1.3348,1.3473,1.3479,1.339,1.3394,1.3398,1.34,0,0,0,0,0,0,0,1.2962,1.2979,1.315,1.3114,1.3118,1.3119,1.3132,1.3215,1.326,1.3188,1.3188,1.3203,1.3308,1.334,1.3351,1.3481,1.3389,1.3396,1.3401,1.3404,1.3697,1.37,0,0,0,0,0,0,1.295,1.2973,1.3146,1.3154,1.3035,1.3125,1.314,1.3181,1.3258,1.3268,1.3205,1.3202,1.3328,1.3342,1.3356,1.3481,1.3398,1.3405,1.341,1.3694,1.3698,1.3701,0,0,0,0,0,0,1.2945,1.2965,1.3141,1.3063,1.3086,1.3132,1.3179,1.3185,1.3217,1.3271,1.3279,1.3229,1.3327,1.3345,1.3439,1.3485,1.3409,1.3416,1.369,1.3695,1.3699,1.3731,0,0,0,0,0,0,1.2938,1.2963,1.3001,1.3064,1.309,1.3221,1.3181,1.3189,1.323,1.3227,1.3296,1.3305,1.3326,1.3427,1.3447,1.3495,1.3422,1.3687,1.3693,1.3698,1.3726,1.3736,1.3745,0,0,0,0,0,1.2929,1.3006,1.3003,1.3024,1.3138,1.3223,1.3238,1.3259,1.3233,1.3273,1.3308,1.3303,1.3477,1.3437,1.3459,1.351,1.3684,1.3691,1.3698,1.3722,1.3734,1.3745,0,0,0,0,0,0,1.2949,1.3014,1.3012,1.311,1.3161,1.3222,1.3272,1.3272,1.3332,1.3328,1.3353,1.3369,1.3463,1.3496,1.345,1.3613,1.3577,1.3589,1.3588,1.36,1.361,1.36,1.3428,0,0,0,0,0,1.2964,1.3026,1.3081,1.3163,1.3188,1.3226,1.3264,1.3276,1.333,1.3352,1.3394,1.3449,1.3516,1.356,1.3625,1.3731,1.3747,1.3777,1.3786,1.3793,1.3804,1.3864,1.3878,1.3724,1.3724,1.3724,0,0,1.2997,1.3041,1.3079,1.3168,1.3209,1.3275,1.3244,1.3315,1.3365,1.3364,1.3455,1.3488,1.3551,1.3652,1.3698,1.3682,1.385,1.3802,1.3808,1.3814,1.3872,1.3887,1.39,1.3729,1.3728,1.3727,0,0,1.3091,1.313,1.3203,1.3244,1.3305,1.333,1.3347,1.3409,1.343,1.3522,1.3522,1.3583,1.3698,1.3743,1.3781,1.3893,1.3892,1.3914,1.3963,1.4021,1.4033,1.4044,1.4086,1.41,1.3923,1.3923,1.3924,0,1.3125,1.3222,1.3241,1.3312,1.3352,1.3352,1.3428,1.3468,1.3548,1.3577,1.3556,1.3701,1.3743,1.3855,1.3883,1.3913,1.3936,1.3906,1.403,1.4041,1.4051,1.4091,1.4106,1.3926,1.3926,1.3925,1.3925,0,1.3262,1.333,1.3382,1.3457,1.3503,1.3577,1.3608,1.3653,1.3661,1.3688,1.3783,1.3833,1.3909,1.3936,1.3945,1.405,1.4038,1.4024,1.3988,1.4068,1.4106,1.4121,1.3929,1.3928,1.3928,1.3927,0,0,1.3372,1.3457,1.3476,1.3511,1.3578,1.3632,1.3706,1.3778,1.3817,1.3873,1.3937,1.4034,1.4021,1.4064,1.4078,1.4129,1.4217,1.4109,1.4111,1.4128,1.4337,1.4348,1.4366,1.4215,1.4218,1.4221,1.4332,0,1.3474,1.3603,1.3623,1.3737,1.3801,1.3803,1.3868,1.3917,1.3945,1.4005,1.4037,1.4106,1.4082,1.4109,1.4159,1.4195,1.4259,1.4187,1.4278,1.428,1.4262,1.4385,1.4397,1.45,1.4347,1.435,1.4352,0,1.3611,1.3668,1.3789,1.3849,1.3877,1.3934,1.4002,1.4059,1.4116,1.4133,1.4181,1.419,1.4269,1.4229,1.434,1.429,1.4328,1.4352,1.4356,1.4367,1.4321,1.44,1.4533,1.4549,1.4375,1.4373,1.4371,0,1.3681,1.3788,1.3875,1.3905,1.3976,1.4017,1.4049,1.4104,1.4146,1.4207,1.4235,1.4304,1.4343,1.4397,1.4425,1.4393,1.4534,1.4496,1.4552,1.4551,1.4582,1.458,1.4725,1.4605,1.4605,1.4604,1.4604,0,1.3793,1.3868,1.3907,1.3961,1.4044,1.4067,1.415,1.4181,1.423,1.4291,1.4297,1.4354,1.4386,1.445,1.4472,1.4561,1.4578,1.4595,1.4601,1.4595,1.4593,1.4622,1.4616,1.4609,1.4608,1.4607,1.4606,0,1.3886,1.3915,1.401,1.4069,1.4086,1.4146,1.4198,1.4251,1.4278,1.4356,1.4375,1.4419,1.4494,1.4526,1.4618,1.4633,1.4736,1.4735,1.4716,1.4718,1.4772,1.4767,1.4941,1.4965,1.4828,1.4829,1.483,0,1.3956,1.4013,1.4079,1.4119,1.4152,1.4217,1.426,1.4285,1.433,1.44,1.4445,1.4519,1.458,1.4699,1.4741,1.4812,1.4814,1.487,1.4825,1.4818,1.4816,1.4813,1.4819,1.4878,1.488,1.4881,1.4882,0,1.4079,1.409,1.4151,1.4217,1.4268,1.4322,1.4375,1.4408,1.4441,1.4492,1.4567,1.4614,1.4708,1.4782,1.4856,1.4891,1.4893,1.4895,1.4912,1.4908,1.4895,1.4904,1.4739,1.4892,1.4891,1.489,1.4889,1.4889,1.4163,1.4214,1.4269,1.4337,1.4379,1.4428,1.4481,1.4514,1.4577,1.4654,1.4665,1.4746,1.4803,1.4902,1.494,1.5005,1.4992,1.5016,1.5022,1.5028,1.5032,1.4884,1.5019,1.5019,1.5018,1.5018,1.5018,0,1.4287,1.4322,1.4384,1.4457,1.4511,1.4506,1.4564,1.461,1.4681,1.4733,1.4793,1.488,1.4952,1.4999,1.5072,1.5116,1.5119,1.5134,1.5132,1.514,1.5039,1.5018,1.5131,1.5131,1.5131,1.5131,1.5131,1.5131,1.4358,1.4444,1.4463,1.4571,1.4606,1.4684,1.4718,1.4764,1.4806,1.4903,1.4962,1.4991,1.5042,1.512,1.5186,1.5198,1.5226,1.5243,1.5254,1.5159,1.5147,1.5136,1.5116,1.5248,1.5248,1.535,1.5351,1.5352]},{"header":{"parameterUnit":"m.s-1","parameterCategory":1,"la1":30.2991,"la2":30.254,"lo1":-89.0895,"lo2":-89.0444,"dy":0.0017,"dx":0.0017,"nx":28,"ny":28,"refTime":"2024-08-08T09:00:00:Z","depth":0,"parameterNumber":3,"parameterNumberName":"V-component_of_WINDS"},"data":[0,0,0,0,0,0,0,0,0,0,0,0,0,0,0,0,0,0,0,0,0,0,0,0,0,0,0,0,0,0,0,0,0,0,0,0,0,0,0,0,0,0,0,0,0,0,0,0,0,0,0,0,0,0,0,0,0,0,0.4953,0.4954,0,0.5064,0.5065,0.5066,0.507,0.5069,0.5067,0.5066,0.5178,0.5182,0.5186,0,0,0,0,0,0,0,0,0,0,0,0,0,0.4738,0.4742,0.4952,0.4954,0.4955,0.5064,0.5065,0.5067,0.507,0.5069,0.5067,0.5065,0.5177,0.5182,0.5187,0,0,0,0,0,0,0,0,0,0,0,0,0,0.4839,0.4743,0.4952,0.497,0.4973,0.5063,0.5065,0.5067,0.5071,0.5069,0.5067,0.5065,0.5175,0.5181,0.5187,0.5267,0,0,0.5207,0.521,0,0,0,0,0,0,0,0,0.4833,0.4846,0.4966,0.4969,0.4972,0.5051,0.5031,0.5134,0.5071,0.5033,0.5066,0.5064,0.5137,0.5147,0.5172,0.5272,0.5277,0.5207,0.5211,0.5214,0.5216,0,0,0,0,0,0,0,0.4826,0.4842,0.4996,0.4968,0.4972,0.4971,0.4983,0.505,0.5095,0.5037,0.5037,0.505,0.5139,0.5166,0.5174,0.5279,0.5207,0.5213,0.5217,0.5219,0.5444,0.5446,0,0,0,0,0,0,0.4816,0.4836,0.4993,0.5,0.4896,0.4977,0.499,0.5028,0.5095,0.5103,0.5052,0.505,0.5156,0.5167,0.5178,0.5272,0.5214,0.522,0.5224,0.5442,0.5445,0.5447,0,0,0,0,0,0,0.4811,0.483,0.4988,0.4918,0.4938,0.4982,0.5025,0.5031,0.5058,0.5106,0.5114,0.5072,0.5155,0.517,0.5244,0.5276,0.5223,0.5229,0.544,0.5443,0.5446,0.5463,0,0,0,0,0,0,0.4805,0.4828,0.486,0.4919,0.4942,0.5054,0.5027,0.5035,0.5069,0.5068,0.5127,0.5135,0.5154,0.5234,0.525,0.5284,0.5233,0.5437,0.5441,0.5445,0.546,0.5466,0.5472,0,0,0,0,0,0.4798,0.4861,0.4862,0.4881,0.4983,0.5056,0.5069,0.5091,0.5072,0.5103,0.5133,0.5133,0.5271,0.5242,0.526,0.5296,0.5435,0.544,0.5445,0.5457,0.5465,0.5472,0,0,0,0,0,0,0.4806,0.4869,0.4871,0.4956,0.5,0.5056,0.5097,0.5099,0.515,0.5146,0.5171,0.5184,0.5257,0.5284,0.5251,0.5374,0.535,0.5359,0.5353,0.5362,0.5368,0.5359,0.5239,0,0,0,0,0,0.4817,0.4872,0.4924,0.4994,0.5016,0.5052,0.5085,0.5098,0.5144,0.5163,0.5199,0.5243,0.5296,0.5331,0.5383,0.5464,0.5474,0.5497,0.5503,0.5508,0.5515,0.5555,0.5565,0.5463,0.5463,0.5463,0,0,0.4842,0.4884,0.4917,0.4997,0.5033,0.5086,0.5068,0.5127,0.5167,0.5172,0.5243,0.5271,0.5322,0.5399,0.5435,0.5424,0.5545,0.5515,0.5518,0.5522,0.5561,0.5571,0.5579,0.5466,0.5466,0.5465,0,0,0.4914,0.4953,0.5013,0.5049,0.5103,0.5126,0.514,0.5195,0.5213,0.5286,0.5289,0.5336,0.5428,0.5463,0.5493,0.5573,0.5573,0.559,0.5622,0.5661,0.5669,0.5676,0.5701,0.571,0.5596,0.5596,0.5597,0,0.4938,0.502,0.5043,0.5101,0.5134,0.5141,0.5201,0.5234,0.5302,0.5324,0.5312,0.5424,0.5459,0.5542,0.5561,0.5587,0.5601,0.5583,0.5666,0.5673,0.568,0.5705,0.5715,0.5598,0.5598,0.5598,0.5597,0,0.5045,0.5102,0.5144,0.5208,0.5246,0.5305,0.5334,0.537,0.5379,0.5402,0.5473,0.5515,0.5574,0.5595,0.5605,0.5678,0.5669,0.5661,0.5637,0.5691,0.5714,0.5724,0.56,0.5599,0.5599,0.5599,0,0,0.5126,0.52,0.5215,0.5243,0.5302,0.5345,0.5402,0.5459,0.5487,0.5534,0.558,0.5656,0.5647,0.5681,0.5694,0.5729,0.5785,0.5716,0.5718,0.5725,0.5864,0.5868,0.5879,0.5786,0.5788,0.579,0.5859,0,0.5202,0.5304,0.5325,0.5413,0.5463,0.5469,0.5518,0.5558,0.5581,0.5626,0.5651,0.5702,0.569,0.5709,0.5744,0.5771,0.5813,0.5767,0.5827,0.5828,0.5811,0.5892,0.5897,0.5961,0.5868,0.587,0.5871,0,0.5304,0.5352,0.5444,0.5493,0.5515,0.5559,0.561,0.5654,0.5698,0.5712,0.5748,0.5756,0.5813,0.5787,0.5864,0.5831,0.5857,0.5874,0.5876,0.5881,0.5852,0.5896,0.5982,0.599,0.5886,0.5885,0.5884,0,0.535,0.5437,0.5503,0.5527,0.5586,0.5616,0.5641,0.5684,0.5715,0.576,0.578,0.5831,0.5858,0.5896,0.5917,0.5897,0.599,0.5967,0.6001,0.6,0.6019,0.6017,0.6107,0.604,0.6039,0.6039,0.6039,0,0.5431,0.5486,0.5523,0.5563,0.5625,0.5647,0.5706,0.5731,0.5768,0.5811,0.582,0.586,0.5886,0.5929,0.5946,0.6004,0.6017,0.6028,0.6031,0.6026,0.6024,0.6042,0.6037,0.6042,0.6041,0.6041,0.604,0,0.5492,0.5519,0.559,0.564,0.5653,0.5696,0.5737,0.5775,0.5797,0.5851,0.5865,0.5899,0.595,0.5974,0.6038,0.6049,0.6114,0.6116,0.6099,0.6099,0.613,0.6126,0.6233,0.6247,0.6172,0.6173,0.6173,0,0.5541,0.5583,0.5636,0.5666,0.5692,0.574,0.5772,0.5794,0.5826,0.5878,0.5908,0.5959,0.6001,0.6081,0.6111,0.6158,0.6159,0.6194,0.6167,0.6158,0.6156,0.6152,0.6155,0.6198,0.6199,0.6199,0.62,0,0.5623,0.5633,0.5679,0.5729,0.5766,0.5806,0.5846,0.5869,0.5897,0.5932,0.5984,0.6017,0.608,0.6129,0.6178,0.6202,0.6204,0.6208,0.6218,0.6212,0.6199,0.6203,0.6109,0.6205,0.6205,0.6204,0.6204,0.6204,0.5677,0.5714,0.5756,0.5806,0.5837,0.5873,0.591,0.5935,0.5979,0.6033,0.6043,0.6097,0.6136,0.6202,0.6227,0.6268,0.626,0.6275,0.6278,0.6281,0.6281,0.6194,0.6277,0.6277,0.6277,0.6277,0.6277,0,0.5757,0.5784,0.583,0.5884,0.5922,0.5921,0.5964,0.5995,0.6042,0.6079,0.612,0.6177,0.6224,0.6256,0.6303,0.6329,0.6331,0.634,0.6337,0.6342,0.6287,0.6273,0.6338,0.6338,0.6338,0.6338,0.6338,0.6338,0.5803,0.5864,0.5879,0.5954,0.598,0.6033,0.6057,0.6089,0.6118,0.6181,0.622,0.6241,0.6275,0.6324,0.6366,0.6374,0.6389,0.6398,0.6405,0.6353,0.6347,0.634,0.6327,0.6402,0.6402,0.6457,0.6457,0.6458]}]]